• MPC Preparation (Info)

  • MPEC 2018-W11 : 2018 VG10

    The following Minor Planet Electronic Circular may be linked-to from your own Web pages, but must not otherwise be redistributed electronically.

    A form allowing access to any MPEC is at the bottom of this page.


    Read MPEC 2018-W10 Read MPEC 2018-W12


    M.P.E.C. 2018-W11                                Issued 2018 Nov. 17, 23:06 UT
    
         The Minor Planet Electronic Circulars contain information on unusual
             minor planets and routine data on comets.  They are published
        on behalf of Division F of the International Astronomical Union by the
              Minor Planet Center, Smithsonian Astrophysical Observatory,
                              Cambridge, MA 02138, U.S.A.
    
                 Prepared using the Tamkin Foundation Computer Network
    
                                  MPC@CFA.HARVARD.EDU
                URL https://www.minorplanetcenter.net/    ISSN 1523-6714
    
                                       2018 VG10
    
    Observations:
         K18V10G* C2018 11 15.26434 01 52 50.55 -12 44 07.8          19.1 GVEW011G96
         K18V10G  C2018 11 15.27000 01 52 50.67 -12 43 46.2                VEW011G96
         K18V10G  C2018 11 15.27565 01 52 50.82 -12 43 24.4                VEW011G96
         K18V10G  C2018 11 15.28128 01 52 50.97 -12 43 02.3          19.9 GVEW011G96
         K18V10G  C2018 11 15.31481201 52 51.79 -12 40 52.3          19.9 GVEW011H01
         K18V10G  C2018 11 15.32470001 52 52.06 -12 40 13.9          20.1 GVEW011H01
         K18V10G  C2018 11 15.33001001 52 52.20 -12 39 53.2          19.9 GVEW011H01
         K18V10G  C2018 11 15.33108 01 52 52.28 -12 39 49.3          20.5 GVEW011I52
         K18V10G  C2018 11 15.33144 01 52 52.28 -12 39 47.0          19.7 GVEW011I52
         K18V10G  C2018 11 15.33292 01 52 52.34 -12 39 41.3          20.2 GVEW011I52
         K18V10G  C2018 11 15.33440 01 52 52.34 -12 39 36.1          19.6 GVEW011I52
         K18V10G  C2018 11 15.33917001 52 52.46 -12 39 17.6          20.0 GVEW011H01
         K18V10G  C2018 11 15.84900 01 53 11.28 -12 06 33.6          21.3 VSEW011033
         K18V10G  C2018 11 15.85105 01 53 11.35 -12 06 25.8          21.8 VSEW011033
         K18V10G  C2018 11 15.85311 01 53 11.41 -12 06 17.8          22.2 VSEW011033
         K18V10G pC2018 11 15.90154601 53 12.83 -12 03 11.2          20.5 VSEW011L01
         K18V10G pC2018 11 15.90891001 53 12.96 -12 02 41.8          20.4 VSEW011L01
         K18V10G pC2018 11 15.91241601 53 13.11 -12 02 29.1          20.3 VSEW011L01
         K18V10G KC2018 11 15.91631301 53 13.21 -12 02 13.5          20.4 VSEW011L01
         K18V10G KC2018 11 15.91943101 53 13.26 -12 02 01.9          20.4 VSEW011L01
         K18V10G KC2018 11 16.16759 01 53 22.78 -11 46 03.8          20.3 RoEW011691
         K18V10G KC2018 11 16.17566 01 53 22.98 -11 45 33.0          20.2 RoEW011691
         K18V10G KC2018 11 16.18373 01 53 23.19 -11 45 01.9          20.2 RoEW011691
         K18V10G KC2018 11 16.19837301 53 23.10 -11 44 08.3          20.5 VuEW011H21
         K18V10G KC2018 11 16.20594001 53 23.30 -11 43 39.2          19.8 VuEW011H21
         K18V10G  C2018 11 16.20948 01 53 23.90 -11 43 23.5          19.9 GVEW011I52
         K18V10G  C2018 11 16.21073 01 53 23.92 -11 43 18.9          19.7 GVEW011I52
         K18V10G  C2018 11 16.21114 01 53 23.94 -11 43 17.9          20.1 GVEW011I52
         K18V10G  C2018 11 16.21239 01 53 24.02 -11 43 13.4          20.4 GVEW011I52
         K18V10G KC2018 11 16.21410701 53 23.53 -11 43 08.1          20.6 VuEW011H21
         K18V10G KC2018 11 16.44322 01 53 31.95 -11 28 01.5          19.7 RqEW011E94
         K18V10G KC2018 11 16.45307 01 53 32.26 -11 27 23.9          19.7 RqEW011E94
         K18V10G KC2018 11 16.46292 01 53 32.50 -11 26 44.5          19.7 RqEW011E94
         K18V10G  C2018 11 17.21859 01 54 00.20 -10 39 18.1          20.2 GVEW011I52
         K18V10G  C2018 11 17.21935 01 54 00.26 -10 39 16.0          19.9 GVEW011I52
         K18V10G  C2018 11 17.22011 01 54 00.26 -10 39 12.6          20.1 GVEW011I52
         K18V10G  C2018 11 17.22088 01 54 00.30 -10 39 10.3          20.1 GVEW011I52
    
    Observer details:
    033 Karl Schwarzschild Observatory, Tautenburg.  Observers C. Hoegner,
        B. Stecklum.  Measurer B. Stecklum.  1.34-m f/3 Schmidt + CCD.
    691 Steward Observatory, Kitt Peak-Spacewatch.  Observer R. A. Mastaler.
        0.9-m f/3 reflector + CCD.
    E94 Possum Observatory, Gisborne.  Observer J. Drummond.  0.41-m f/4.5
        Newtonian reflector + CCD.
    G96 Mt. Lemmon Survey.  Observer B. M. Africano.  Measurers B. M. Africano,
        E. J. Christensen, G. A. Farneth, D. C. Fuls, A. R. Gibbs, A. D. Grauer,
        H. Groeller, J. A. Johnson, R. A. Kowalski, S. M. Larson, G. J. Leonard,
        R. L. Seaman, F. C. Shelly.  1.5-m reflector + 10K CCD.
    H01 Magdalena Ridge Observatory, Socorro.  Observers W. H. Ryan, E. V. Ryan.
        Measurer W. H. Ryan.  2.4-m f/8.9 Ritchey-Chretien + CCD.
    H21 Astronomical Research Observatory, Westfield.  Observer R. Holmes.
        Measurers S. Foglia, L. Buzzi, T. Linder, R. Holmes.  0.61-m f/4.5
        astrograph + CCD.
    I52 Steward Observatory, Mt. Lemmon Station.  Observers G. J. Leonard,
        R. A. Kowalski.  Measurers B. M. Africano, E. J. Christensen,
        G. A. Farneth, D. C. Fuls, A. R. Gibbs, A. D. Grauer, H. Groeller,
        J. A. Johnson, R. A. Kowalski, S. M. Larson, G. J. Leonard, R. L. Seaman,
        F. C. Shelly.  1.0-m reflector + CCD.
    L01 Visnjan Observatory, Tican.  Observer K. Korlevic.  1.0-m f/2.9 reflector
        + CCD.
    
    Orbital elements:
    2018 VG10                                                Earth MOID = 0.3020 AU
    Epoch 2019 Apr. 27.0 TT = JDT 2458600.5                 MPC
    M  42.29614              (2000.0)            P               Q
    n   0.20971210     Peri.  300.66975     +0.95922817     -0.15028341
    a   2.8057807      Node    68.89798     +0.24979126     +0.84702057
    e   0.5688750      Incl.   14.86674     -0.13223329     +0.50987356
    P   4.70           H   20.7           G   0.15           U   8
    Residuals in seconds of arc
    181115 G96  0.2+  0.4+    181115 033  0.2-  0.1-    181116 I52  0.4-  0.2+
    181115 G96  0.2-  0.0     181115 033  0.2-  0.0     181116 I52  0.2-  0.4-
    181115 G96  0.1-  0.2-    181115 L01  1.1+  0.9-    181116 I52  0.4+  0.7-
    181115 G96  0.0   0.1+    181115 L01  0.0   0.1+    181116 H21  0.1+  0.1-
    181115 H01  0.1+  0.1+    181115 L01  0.8+  0.7-    181116 E94  0.4+  0.2-
    181115 H01  0.2+  0.0     181115 L01  0.6+  0.1-    181116 E94  1.0+  0.3-
    181115 H01  0.1+  0.1+    181115 L01  0.1+  0.5-    181116 E94  0.5+  1.4+
    181115 I52  0.0   0.5-    181116 691  0.3-  0.2+    181117 I52  0.4-  0.4+
    181115 I52  0.1-  0.4+    181116 691  0.6-  0.2+    181117 I52  0.2+  0.4-
    181115 I52  0.1+  0.4+    181116 691  0.7-  0.4+    181117 I52  0.1-  0.1+
    181115 I52  0.4-  0.2-    181116 H21  0.2+  0.1+    181117 I52  0.2+  0.5-
    181115 H01  0.2+  0.1+    181116 H21  0.1+  0.2+
    181115 033  0.4-  0.0     181116 I52  0.2-  0.3+
    
    Ephemeris:
    2018 VG10                a,e,i = 2.81, 0.57, 15                  q = 1.2096
    Date    TT    R. A. (2000) Decl.     Delta      r     Elong.  Phase     V
    2018 10 18    01 41 43.6 -42 47 26   0.3167  1.2163   127.7    40.4    20.2
    ...
    2018 11 02    01 46 53.8 -27 33 15   0.3222  1.2468   136.7    33.1    20.1
    ...
    2018 11 10    01 50 07.6 -18 32 08   0.3408  1.2724   140.6    29.6    20.2
    ...
    2018 11 16    01 53 16.3 -11 56 34   0.3634  1.2954   142.2    27.9    20.3
    2018 11 17    01 53 52.1 -10 52 54   0.3679  1.2995   142.3    27.7    20.3
    2018 11 18    01 54 29.2 -09 50 03   0.3726  1.3037   142.4    27.6    20.4
    ...
    2018 11 24    01 58 39.6 -03 52 36   0.4052  1.3306   142.1    27.1    20.6
    ...
    2018 12 02    02 05 27.6 +03 04 03   0.4600  1.3704   139.9    27.6    20.9
    ...
    2018 12 17    02 22 02.4 +13 01 26   0.5946  1.4550   132.8    29.8    21.7
    
    A. U. Tomatic                (C) Copyright 2018 MPC           M.P.E.C. 2018-W11
    

    Read MPEC 2018-W10 Read MPEC 2018-W12


    MPEC number:

    Enter an MPEC number in one of the following forms:

    • 1997-B01 (the full form)
    • J97B01 (the packed version of the full form)
    • B01 (the abbreviated form)